Torna al catalogo

STARLINK-5661

AttivoComunicazioniVLEO
NORAD 55343·PAYLOAD·🇺🇸 United States

Lanciato Jan 26, 2023 da Cape Canaveral Space Force Station

Loading…

Prossimi Passaggi (prossime 24 ore)

TLE

AggiornatoSource: CelesTrak SupGP

Epoca: Sep 15, 2026, 02:43 UTC

1 55343C 23013N   26258.11368056  .00024538  00000+0  88885-3 0  2581
2 55343  43.0040 313.2725 0001649 271.1365 234.4725 15.27562381    19

Traccia STARLINK-5661 in tempo reale con AllMySat

Download on the App Store